Location: Holyhead Bay
(53.3667°N, 4.6667°W)
Time: 19:22:50
(UTC+00:00)

FengYun 1-2 T - Pass Details

Date: 24 November 2020
Orbit: 847 x 881 km, 98.7° (Epoch: 16 January)

Event Time Altitude Azimuth Distance (km) Brightness Sun altitude
Rises 17:46:57 0° 162° (SSE) 3,434 7.4 -13.8°
Reaches altitude 10° 17:49:20 10° 163° (SSE) 2,496 6.6 -14.2°
Maximum altitude 17:54:53 88° 248° (WSW) 865 4.2 -15.0°
Drops below altitude 10° 18:00:27 10° 344° (NNW) 2,493 6.7 -15.8°
Sets 18:02:49 0° 345° (NNW) 3,430 7.4 -16.1°
